Clemson, SC

2:51 PM EDT on September 21, 2017 (GMT -0400)
Oconee County Regional

Weather History for KCEU - July, 2013

Change the Weather History Date:

Monday, July 8, 2013

  Actual Average Record
Temperature  
Mean Temperature 80 °F -  
Max Temperature 89 °F 89 °F 102 °F (2016)
Min Temperature 73 °F 66 °F 57 °F (1951)
Cooling Degree Days 16    
Growing Degree Days 30 (Base 50)    
Moisture  
Dew Point 71 °F    
Average Humidity 78    
Maximum Humidity 89    
Minimum Humidity 57    
Precipitation  
Precipitation 0.17 in - - ()
Sea Level Pressure  
Sea Level Pressure 30.17 in    
Wind  
Wind Speed 3 mph (South)    
Max Wind Speed 12 mph    
Max Gust Speed 18 mph    
Visibility 10 miles    
Events Rain , Thunderstorm    
Averages and records for this station are not official NWS values.
T = Trace of Precipitation, MM = Missing Value Source: NWS Daily Summary

Daily Weather History Graph

Daily Weather History Graph

Search for Another Location

Airport or City:

Trip Planner

Search our weather history database for the weather conditions in past years. The results will help you decide how hot, cold, wet, or windy it might be!

Date:

Astronomy

Jul. 08, 2013 Rise Set
Actual Time 6:25 AM EDT 8:47 PM EDT
Civil Twilight 5:56 AM EDT 9:16 PM EDT
Nautical Twilight 5:20 AM EDT 9:52 PM EDT
Astronomical Twilight 4:41 AM EDT 10:31 PM EDT
Moon 6:50 AM EDT (7/8) 8:53 PM EDT (7/8)
Length of Visible Light 15h 19m
Length of Day
14h 21m
New Moon, 0% of the Moon is Illuminated
Jul 8
New Moon
Jul 15
First Quarter
Jul 22
Full
Jul 29
Last Quarter
Aug 6
New

Hourly Weather History & Observations

Time (EDT) Temp. Heat Index Dew Point Humidity Pressure Visibility Wind Dir Wind Speed Gust Speed Precip Events Conditions
12:54 AM 75.9 °F - 71.1 °F 85% 30.16 in 10.0 mi SW 3.5 mph - N/A   Clear
1:54 AM 75.9 °F - 71.1 °F 85% 30.16 in 10.0 mi SW 4.6 mph - N/A   Overcast
2:54 AM 75.0 °F - 71.1 °F 87% 30.15 in 9.0 mi South 3.5 mph - N/A   Overcast
3:54 AM 75.0 °F - 69.1 °F 82% 30.15 in 10.0 mi SW 3.5 mph - 0.01 in   Overcast
4:54 AM 73.9 °F - 70.0 °F 87% 30.14 in 10.0 mi Calm Calm - N/A   Scattered Clouds
5:54 AM 73.0 °F - 68.0 °F 84% 30.14 in 10.0 mi Calm Calm - N/A   Clear
6:54 AM 73.0 °F - 69.1 °F 87% 30.16 in 10.0 mi Calm Calm - N/A   Clear
7:54 AM 73.9 °F - 69.1 °F 85% 30.17 in 10.0 mi South 4.6 mph - N/A   Clear
8:28 AM 73.4 °F - 69.8 °F 88% 30.20 in 10.0 mi South 5.8 mph - N/A   Partly Cloudy
8:54 AM 75.0 °F - 69.1 °F 82% 30.18 in 10.0 mi South 3.5 mph - N/A   Partly Cloudy
9:54 AM 77.0 °F - 69.1 °F 76% 30.19 in 10.0 mi Variable 3.5 mph - N/A   Mostly Cloudy
10:08 AM 78.8 °F - 69.8 °F 74% 30.22 in 10.0 mi SE 3.5 mph - N/A   Mostly Cloudy
10:54 AM 81.0 °F 84.4 °F 70.0 °F 69% 30.19 in 10.0 mi Calm Calm - N/A   Overcast
11:31 AM 80.6 °F 83.9 °F 69.8 °F 70% 30.23 in 10.0 mi Variable 3.5 mph - N/A   Scattered Clouds
11:54 AM 82.9 °F 87.0 °F 70.0 °F 65% 30.19 in 10.0 mi East 4.6 mph - N/A   Partly Cloudy
12:54 PM 84.0 °F 87.8 °F 69.1 °F 61% 30.18 in 10.0 mi Calm Calm - N/A   Clear
1:54 PM 86.0 °F 90.7 °F 70.0 °F 59% 30.17 in 10.0 mi Variable 3.5 mph - N/A   Clear
2:54 PM 86.0 °F 91.5 °F 71.1 °F 61% 30.14 in 10.0 mi Variable 4.6 mph - N/A   Clear
3:54 PM 88.0 °F 93.8 °F 71.1 °F 57% 30.13 in 10.0 mi Variable 5.8 mph - N/A   Scattered Clouds
4:54 PM 84.0 °F 89.6 °F 72.0 °F 67% 30.12 in 10.0 mi Calm Calm - N/A   Clear
5:54 PM 84.9 °F 90.7 °F 72.0 °F 65% 30.12 in 10.0 mi South 3.5 mph - N/A   Clear
6:54 PM 82.9 °F 88.8 °F 73.0 °F 72% 30.12 in 10.0 mi Calm Calm - N/A   Overcast
7:19 PM 80.6 °F 83.9 °F 69.8 °F 70% 30.15 in 2.0 mi SW 3.5 mph - 0.04 in Rain Rain
7:28 PM 78.8 °F - 73.4 °F 83% 30.15 in 7.0 mi Calm Calm - 0.04 in Rain Light Rain
7:54 PM 79.0 °F - 73.0 °F 82% 30.12 in 10.0 mi Calm Calm - 0.04 in   Scattered Clouds
8:06 PM 78.8 °F - 71.6 °F 78% 30.15 in 10.0 mi Calm Calm - N/A Thunderstorm Partly Cloudy
8:26 PM 78.8 °F - 71.6 °F 78% 30.16 in 10.0 mi Calm Calm - N/A   Clear
8:54 PM 77.0 °F - 72.0 °F 84% 30.13 in 10.0 mi Calm Calm - N/A   Scattered Clouds
9:54 PM 77.0 °F - 71.1 °F 82% 30.15 in 10.0 mi NNE 3.5 mph - N/A   Scattered Clouds
10:37 PM 75.2 °F - 71.6 °F 89% 30.19 in 10.0 mi Calm Calm - 0.08 in Rain Light Rain
10:40 PM 75.2 °F - 71.6 °F 89% 30.19 in 10.0 mi Calm Calm - 0.08 in Rain , Thunderstorm Light Rain
10:54 PM 75.0 °F - 71.1 °F 87% 30.17 in 10.0 mi Calm Calm - 0.09 in Rain , Thunderstorm Light Rain
11:04 PM 75.2 °F - 71.6 °F 89% 30.21 in 10.0 mi SSE 4.6 mph - 0.00 in Rain , Thunderstorm Light Rain
11:27 PM 75.2 °F - 69.8 °F 83% 30.23 in 10.0 mi West 11.5 mph 18.4 mph 0.02 in Rain , Thunderstorm Light Rain
11:42 PM 73.4 °F - 69.8 °F 88% 30.23 in 9.0 mi West 4.6 mph - 0.03 in Rain , Thunderstorm Light Thunderstorms and Rain
11:54 PM 73.0 °F - 69.1 °F 87% 30.20 in 10.0 mi SE 4.6 mph - 0.03 in Rain , Thunderstorm Light Thunderstorms and Rain